{"data":{"norad_id":53346,"intl_designator":"2022-090A","name":"TECMS","alt_names":[],"object_type":"PAYLOAD","status":"ACTIVE","operator":null,"country":"PRC","launch_date":"2022-08-04","launch_site_code":"TAISC","launch_vehicle":null,"mission":null,"orbit_class":"UNKNOWN","rcs_meters":null,"size_class":null,"mass_kg":null,"dimensions":null,"purposes":[],"wikipedia_slug":null,"has_3d_model":false,"image_url":null,"decayed_at":null,"tle_current":{"epoch":"2026-05-25T04:53:32.326368Z","epoch_age_seconds":71573,"freshness":"FRESH","line1":"1 53346U 22090A   26145.20384637  .00003386  00000+0  15352-3 0  9993","line2":"2 53346  97.3145 213.9634 0001130 252.6621 107.4492 15.21499741211317","mean_motion":15.21499741,"eccentricity":0.000113,"inclination_deg":97.3145,"raan_deg":213.9634,"arg_perigee_deg":252.6621,"mean_anomaly_deg":107.4492,"bstar":0.00015352,"rev_number":21131,"period_min":94.643460080615,"perigee_km":500.53880479011,"apogee_km":502.09356120947,"semimajor_km":6879.4531829998,"source":"CELESTRAK","updated_at":"2026-05-25T13:37:58.152736Z"}}}